Location: Kellogg
(38.0159°N, 90.0546°W)
Time: 07:18:55
(UTC+00:00)

S-56A Canister/Altair - Pass Details

Date: 22 September 2024
Orbit: 636 x 2487 km, 38.9° (Epoch: 09 October)

Event Time Altitude Azimuth Distance (km) Brightness Sun altitude
Rises 21:23:38 0° 228° (SW) 2,967 11.7 28.4°
Reaches altitude 10° 21:26:04 10° 220° (SW) 2,014 10.9 27.9°
Maximum altitude 21:30:10 37° 152° (SSE) 999 8.4 27.2°
Drops below altitude 10° 21:34:40 10° 85° (E) 2,215 9.4 26.4°
Sets 21:37:28 0° 77° (ENE) 3,311 10.2 25.9°
